DW3201 Weather Reports


Display with metric or nautical units.
time (UTC)temp
F
wind
direction
speed
MPH
gust
MPH
rain 1hr
in
rain 24hr
in
rain mn
in
humidity
%
barometer
mb
20200713005309 72 114 0.0 3.0 0.00 0.11 0.11 52 1011.5
20200713004306 72 110 0.0 2.0 0.00 0.11 0.11 52 1011.9
20200713003305 73 109 1.0 1.0 0.00 0.11 0.11 51 1011.9
20200713002302 73 114 1.0 1.0 0.00 0.11 0.11 52 1011.5
20200713001301 73 113 0.0 3.0 0.00 0.11 0.11 54 1011.5
20200713000301 74 39 1.0 3.0 0.00 0.11 0.11 54 1011.5
20200712235258 74 87 1.0 5.0 0.00 0.11 0.11 54 1011.5
20200712234257 74 74 0.0 3.0 0.00 0.11 0.11 54 1011.5
20200712233256 74 48 2.0 5.0 0.00 0.11 0.11 56 1011.2
20200712232255 75 71 1.0 4.0 0.00 0.11 0.11 54 1011.2
20200712231254 75 101 1.0 5.0 0.00 0.11 0.11 55 1011.2
20200712230253 75 151 3.0 5.0 0.00 0.11 0.11 55 1011.2
20200712225250 76 92 0.0 5.0 0.00 0.11 0.11 57 1011.2
20200712224249 76 53 0.0 5.0 0.00 0.11 0.11 56 1010.8
20200712223247 76 70 2.0 4.0 0.00 0.11 0.11 58 1010.8
20200712222246 77 79 1.0 4.0 0.00 0.11 0.11 58 1010.8
20200712221244 77 76 1.0 4.0 0.00 0.11 0.11 58 1010.8
20200712220243 77 352 1.0 5.0 0.00 0.11 0.11 59 1010.5
20200712215242 78 91 2.0 4.0 0.00 0.11 0.11 60 1010.5
20200712214241 79 64 3.0 5.0 0.00 0.11 0.11 61 1010.5
20200712213240 78 333 0.0 1.0 0.00 0.11 0.11 61 1010.5
20200712212233 79 333 1.0 3.0 0.00 0.11 0.11 60 1010.5
20200712211232 79 333 2.0 2.0 0.00 0.11 0.11 60 1010.2
20200712210231 79 333 1.0 3.0 0.00 0.11 0.11 60 1010.5
20200712205230 80 337 2.0 3.0 0.00 0.11 0.11 57 1010.2
20200712204227 80 342 2.0 3.0 0.00 0.11 0.11 59 1010.2
20200712203226 79 335 0.0 0.0 0.00 0.11 0.11 60 1010.2
20200712202225 80 335 1.0 4.0 0.00 0.11 0.11 59 1010.2
20200712201224 82 11 2.0 4.0 0.00 0.11 0.11 57 1010.2
20200712200223 81 18 0.0 3.0 0.00 0.11 0.11 58 1010.2
20200712195222 80 332 2.0 4.0 0.00 0.11 0.11 58 1010.2
20200712194221 79 334 0.0 4.0 0.00 0.11 0.11 59 1010.5
20200712193220 79 341 0.0 1.0 0.00 0.11 0.11 59 1010.5
20200712192219 80 3 2.0 4.0 0.00 0.11 0.11 58 1010.2
20200712191217 79 337 2.0 3.0 0.00 0.11 0.11 59 1010.5
20200712190216 79 336 0.0 5.0 0.00 0.11 0.11 60 1010.5
20200712185215 79 337 0.0 4.0 0.00 0.11 0.11 59 1010.2
20200712184214 79 337 2.0 4.0 0.00 0.11 0.11 59 1010.5
20200712183213 78 336 0.0 5.0 0.00 0.11 0.11 59 1010.5
20200712182211 78 327 2.0 3.0 0.00 0.11 0.11 59 1010.2
20200712181211 78 327 0.0 3.0 0.00 0.11 0.11 60 1010.5
20200712180209 78 326 1.0 4.0 0.00 0.11 0.11 60 1010.5
20200712175208 78 330 2.0 3.0 0.00 0.11 0.11 60 1010.5
20200712174207 78 334 2.0 4.0 0.00 0.11 0.11 60 1010.5
20200712173206 78 334 2.0 5.0 0.00 0.11 0.11 59 1010.5
20200712172205 78 331 2.0 4.0 0.00 0.11 0.11 59 1010.5
20200712171204 78 331 2.0 4.0 0.00 0.11 0.11 59 1010.5
20200712170203 78 330 0.0 1.0 0.00 0.11 0.11 58 1010.5
20200712165202 77 342 2.0 5.0 0.00 0.11 0.11 58 1010.5
20200712164201 76 341 0.0 1.0 0.00 0.11 0.11 57 1010.5
20200712163200 77 341 0.0 1.0 0.00 0.11 0.11 58 1010.5
20200712162159 79 341 0.0 1.0 0.00 0.11 0.11 57 1010.5
20200712161158 78 341 0.0 1.0 0.00 0.11 0.11 56 1010.5
20200712160156 77 329 0.0 3.0 0.00 0.11 0.11 57 1010.5
20200712155156 76 52 0.0 1.0 0.00 0.11 0.11 55 1010.5
20200712154153 75 345 1.0 1.0 0.00 0.11 0.11 55 1010.5
20200712153149 75 345 1.0 2.0 0.00 0.11 0.11 53 1010.8
20200712152149 75 342 0.0 2.0 0.00 0.11 0.11 52 1010.5
20200712151146 76 5 0.0 0.0 0.00 0.11 0.11 54 1010.5
20200712150145 76 360 0.0 3.0 0.00 0.11 0.11 54 1010.5
20200712145144 75 78 3.0 4.0 0.00 0.11 0.11 51 1010.5
20200712144143 75 19 0.0 0.0 0.00 0.11 0.11 44 1010.5
20200712143142 75 19 0.0 1.0 0.00 0.11 0.11 45 1010.8
20200712142141 75 100 2.0 4.0 0.00 0.11 0.11 45 1010.8
20200712141139 74 0 1.0 5.0 0.00 0.11 0.11 39 1010.8
20200712140137 74 53 0.0 0.0 0.00 0.11 0.11 35 1010.8
20200712135136 74 65 0.0 1.0 0.00 0.11 0.11 30 1010.8
20200712134136 73 60 3.0 3.0 0.00 0.11 0.11 27 1010.8
20200712133135 73 126 1.0 2.0 0.00 0.11 0.11 22 1010.8
20200712132134 72 57 0.0 1.0 0.00 0.11 0.11 17 1010.8
20200712131133 71 91 3.0 5.0 0.00 0.11 0.11 15 1010.5
20200712130132 70 307 1.0 1.0 0.00 0.11 0.11 16 1010.5
20200712125131 70 18 0.0 0.0 0.00 0.11 0.11 17 1010.8
20200712124129 70 46 0.0 0.0 0.00 0.11 0.11 18 1010.5
20200712123126 69 46 1.0 1.0 0.00 0.11 0.11 18 1010.5
20200712122125 69 45 0.0 1.0 0.00 0.11 0.11 19 1010.2
20200712121123 68 24 0.0 1.0 0.00 0.11 0.11 19 1010.2
20200712120122 68 55 2.0 2.0 0.00 0.11 0.11 19 1010.2
20200712115121 67 338 1.0 1.0 0.00 0.11 0.11 19 1009.8
20200712114120 67 279 0.0 0.0 0.00 0.11 0.11 20 1009.8
20200712113119 67 279 0.0 0.0 0.00 0.11 0.11 20 1009.8
20200712112118 67 279 0.0 0.0 0.00 0.11 0.11 20 1009.5
20200712111119 67 279 0.0 0.0 0.00 0.11 0.11 20 1009.5
20200712110118 67 279 0.0 0.0 0.00 0.11 0.11 20 1009.5
20200712105115 68 279 1.0 3.0 0.00 0.11 0.11 20 1009.5
20200712104113 68 17 0.0 0.0 0.00 0.11 0.11 20 1009.5
20200712103113 68 17 0.0 1.0 0.00 0.11 0.11 20 1009.1
20200712102112 68 16 0.0 0.0 0.00 0.11 0.11 20 1008.8
20200712101111 68 16 0.0 1.0 0.00 0.11 0.11 20 1008.5
20200712100110 68 15 0.0 0.0 0.01 0.11 0.11 20 1008.5
20200712095109 68 15 1.0 2.0 0.01 0.11 0.11 20 1008.5
20200712094108 69 53 1.0 4.0 0.01 0.11 0.11 20 1008.1
20200712093103 69 347 0.0 1.0 0.01 0.11 0.11 19 1008.1
20200712092102 69 10 0.0 1.0 0.01 0.11 0.11 19 1007.8
20200712091102 68 100 1.0 2.0 0.01 0.11 0.11 19 1007.8
20200712090101 68 282 0.0 2.0 0.00 0.10 0.10 19 1007.5
20200712085100 68 279 0.0 0.0 0.00 0.10 0.10 19 1007.8
20200712084059 68 279 0.0 0.0 0.00 0.10 0.10 19 1007.8
20200712083059 68 279 0.0 0.0 0.00 0.10 0.10 19 1007.5
20200712082057 68 279 0.0 2.0 0.00 0.10 0.10 19 1007.5
20200712081053 68 279 0.0 0.0 0.00 0.10 0.10 19 1007.5
20200712080052 68 278 0.0 0.0 0.00 0.10 0.10 19 1007.1
20200712075051 68 277 0.0 0.0 0.00 0.10 0.10 19 1007.1
20200712074050 69 279 0.0 0.0 0.00 0.10 0.10 18 1007.1
20200712073049 69 279 0.0 0.0 0.00 0.10 0.10 18 1007.1
20200712072048 70 279 0.0 0.0 0.00 0.10 0.10 18 1007.1
20200712071047 70 277 0.0 0.0 0.00 0.10 0.10 18 1007.1
20200712070045 71 278 0.0 0.0 0.00 0.10 0.10 18 1007.1
20200712065045 71 279 0.0 0.0 0.00 0.10 0.10 18 1007.1
20200712064044 71 279 0.0 0.0 0.00 0.10 0.10 18 1006.8
20200712063042 71 279 0.0 0.0 0.00 0.10 0.10 17 1006.8
20200712062041 71 279 0.0 0.0 0.00 0.10 0.10 17 1006.8
20200712061040 71 279 0.0 0.0 0.10 0.10 0.10 17 1006.8
20200712060039 71 279 0.0 0.0 0.10 0.10 0.10 16 1006.8
20200712055038 71 279 0.0 0.0 0.10 0.10 0.10 16 1006.8
20200712054037 71 279 0.0 0.0 0.10 0.10 0.10 16 1006.4
20200712053035 72 279 0.0 0.0 0.10 0.10 0.10 15 1006.8
20200712052035 73 279 0.0 0.0 0.10 0.10 0.10 15 1006.8
20200712051034 73 279 0.0 0.0 0.00 0.00 0.00 15 1007.5
20200712050033 73 279 0.0 2.0 0.00 0.00 0.00 15 1007.1
20200712045032 72 279 0.0 0.0 0.00 0.00 0.00 15 1007.1
20200712044031 73 279 0.0 0.0 0.00 0.00 0.00 14 1006.8
20200712043029 73 279 0.0 0.0 0.00 0.00 0.00 14 1007.1
20200712042028 73 279 0.0 0.0 0.00 0.00 0.00 14 1007.1
20200712041027 73 279 0.0 0.0 0.00 0.00 0.00 14 1007.1
20200712040027 73 279 0.0 0.0 0.00 0.00 0.00 14 1007.5
20200712035026 74 279 0.0 0.0 0.00 0.00 0.00 13 1007.1
20200712034025 74 279 0.0 0.0 0.00 0.00 0.00 13 1007.1
20200712033023 74 279 0.0 0.0 0.00 0.00 0.00 13 1007.1
20200712032022 74 279 0.0 0.0 0.00 0.00 0.00 13 1007.1
20200712031022 75 279 0.0 0.0 0.00 0.00 0.00 13 1007.5
20200712030021 75 279 0.0 0.0 0.00 0.00 0.00 14 1007.8
20200712025019 75 279 0.0 0.0 0.00 0.00 0.00 16 1007.8
20200712024017 75 279 0.0 0.0 0.00 0.00 0.00 16 1007.8
20200712023015 75 279 0.0 0.0 0.00 0.00 0.00 16 1007.8
20200712022002 75 279 0.0 0.0 0.00 0.00 0.00 17 1007.8
20200712021000 75 279 0.0 0.0 0.00 0.00 0.00 19 1007.8
20200712015959 75 279 0.0 0.0 0.00 0.00 0.00 23 1007.5
20200712014958 75 279 0.0 0.0 0.00 0.00 0.00 26 1007.5
20200712013957 76 279 0.0 0.0 0.00 0.00 0.00 26 1007.5
20200712012956 77 279 0.0 0.0 0.00 0.00 0.00 29 1007.5
20200712011956 77 279 0.0 0.0 0.00 0.00 0.00 37 1007.5
20200712010954 77 279 0.0 0.0 0.00 0.00 0.00 39 1007.5
20200712005954 78 279 0.0 0.0 0.00 0.00 0.00 49 1007.5